SCP
0 0 0 0 0 0 0 0 0 0 0 0 0 0 0 0 0 0 0 0 0 0 0 0 0 0 0 0 0 0 0 0 0 0 0 0 0 0 0 -0 -0 -0 0
0 0 0 0 0 0 0 0 0 0 0 0 0 0 0 0 0 0 0 0 0 0 0 0 0 0 0 0 0 0 0 0 0 0 0 0 0 0 0 -0 0 0 0
0 0 0 0 0 0 0 0 0 0 0 0 0 0 0 0 0 0 0 0 0 0 0 0 0 0 0 0 0 0 0 0 0 0 0 0 0 0 0 0 0 0 0
0 0 0 0 0 0 0 0 0 0 0 0 0 0 0 0 0 0 0 0 0 0 0 0 0 0 0 0 0 0 0 0 0 0 0 0 0 0 0 0 0 0 0
0 0 0 0 0 0 0 0 0 0 0 0 0 0 0 0 0 0 0 0 0 0 0 0 0 0 0 0 0 0 0 0 0 0 0 0 0 0 0 0 0 0 0
0 0 0 0 0 0 0 0 0 0 0 0 0 0 0 0 0 0 0 0 0 0 0 0 0 0 0 0 0 0 0 0 0 0 0 0 0 0 0 0 0 0 0
0 0 0 0 0 0 0 0 0 0 0 0 0 0 0 0 0 0 0 0 0 0 0 0 0 0 0 0 0 0 0 -0 0 0 0 0 0 0 0 0 0 0 0
0 0 0 0 0 0 0 0 0 0 0 0 0 0 0 0 0 0 0 0 0 0 0 0 0 0 0 0 0 0 0 0 0 0 0 0 0 0 0 0 0 0 0
0 0 0 0 0 0 0 0 0 0 0 0 0 0 0 0 0 0 0 0 0 0 0 0 0 0 0 0 0 0 0 0 0 0 0 0 0 0 0 0 0 0 0
0 0 0 0 0 0 0 0 0 0 0 0 0 0 0 0 0 0 0 0 0 0 0 0 0 0 0 0 0 0 0 0 0 0 0 0 0 0 0 0 0 0 0
0 0 0 0 0 0 0 0 0 0 0 0 0 0 0 0 0 0 0 0 0 0 0 0 0 0 0 0 0 0 0 0 0 0 0 0 0 0 0 0 0 0 0
0 0 0 0 0 0 0 0 0 0 0 0 0 0 0 0 0 0 0 0 0 0 0 0 0 0 0 0 0 0 0 0 0 0 0 0 0 0 0 0 0 0 0
0 0 0 0 0 0 0 0 0 0 0 0 0 0 0 0 0 0 0 0 0 0 0 0 0 0 0 0 0 0 0 0 0 0 0 0 0 0 0 0 0 0 0
0 0 0 0 0 0 0 0 0 0 0 0 0 0 0 0 0 0 0 0 0 0 0 0 0 0 0 0 0 0 0 0 0 0 0 0 0 0 0 0 0 0 0
0 0 0 0 0 0 0 0 0 0 0 0 0 0 0 0 0 0 0 0 0 0 0 0 0 0 0 0 0 0 0 0 0 0 0 0 0 0 0 0 0 0 0
0 0 0 0 0 0 0 0 0 0 0 0 0 0 0 0 0 0 0 0 0 0 0 0 0 0 0 0 0 0 0 0 0 0 0 0 0 0 0 0 0 0 0
0 0 0 0 0 0 0 0 0 0 0 0 0 0 0 0 0 0 0 0 0 0 0 0 0 0 0 0 0 0 0 0 0 0 0 0 0 0 0 0 0 0 0
0 0 0 0 0 0 0 0 0 0 0 0 0 0 0 0 0 0 0 0 0 0 0 0 0 0 0 0 0 0 0 0 0 0 0 0 0 0 0 0 0 0 0
0 0 0 0 0 0 0 0 0 0 0 0 0 0 0 0 0 0 0 0 0 0 0 0 0 0 0 0 0 0 0 0 0 0 0 0 0 0 0 0 0 0 0
0 0 0 0 0 0 0 0 0 0 0 0 0 0 0 0 0 0 0 0 0 0 0 0 0 0 0 0 0 0 0 0 0 0 0 0 0 0 0 0 0 0 0
0 0 0 0 0 0 0 0 0 0 0 0 0 0 0 0 0 0 0 0 0 0 0 0 0 0 0 0 0 0 0 0 0 0 0 0 0 0 0 0 0 0 0
0 0 0 0 0 0 0 0 0 0 0 0 0 0 0 0 0 0 0 0 0 0 0 0 0 0 0 0 0 0 0 0 0 0 0 0 0 0 0 0 0 -0 -0
0 0 0 0 0 0 0 0 0 0 0 0 0 0 0 0 0 0 0 0 0 0 0 0 0 0 0 0 0 0 0 0 0 0 0 0 0 0 -0 -0 -0 -0 -0
0 0 0 0 0 0 0 0 0 0 0 0 0 0 0 0 0 0 0 0 0 0 0 0 0 0 0 0 0 0 0 0 0 0 0 0 0 0 -0 -0 -0 -0 -0
0 0 0 0 0 0 0 0 0 0 0 0 0 0 0 0 0 0 0 0 0 0 0 0 0 0 0 0 0 0 0 0 0 0 0 0 0 0 -0 -0 -0 -0 -0
0 0 0 0 0 0 0 0 0 0 0 0 0 0 0 0 0 0 0 0 0 0 0 0 0 0 0 0 0 0 0 0 0 0 0 0 0 0 -0 -0 -0 -0 -0
Wind_Speed_500mb
84 91 97 98 99 98 93 89 90 90 88 83 85 84 79 72 65 59 53 49 49 48 47 42 40 36 37 40 46 51 56 60 84 109 98 108 107 108 109 112 114 110 104
80 91 95 103 106 107 104 98 95 94 88 84 87 86 82 76 70 65 59 54 52 49 46 43 39 37 39 42 49 55 59 61 73 102 111 110 109 107 109 112 116 111 105
87 94 97 101 109 113 112 107 102 98 90 89 91 91 88 80 75 69 63 58 55 51 46 43 39 37 40 46 50 57 60 65 69 84 111 109 108 105 110 110 118 119 110
87 93 96 100 104 108 111 111 108 103 94 95 96 93 90 83 79 75 68 61 56 52 47 44 40 37 41 47 55 58 59 63 69 77 94 107 107 107 102 107 111 99 99
89 99 98 94 98 106 107 103 105 103 96 93 94 96 93 91 87 79 72 63 59 54 49 44 42 38 43 50 54 55 57 61 63 74 91 102 107 93 84 102 108 113 110
104 106 104 103 99 105 99 100 100 96 92 91 97 100 99 96 88 81 74 66 60 55 50 47 40 41 42 47 50 46 48 50 61 69 82 88 110 99 96 97 106 108 127
106 109 107 103 105 100 97 96 96 93 91 95 103 104 102 95 88 84 76 66 60 54 51 47 39 40 44 46 43 47 43 43 51 62 79 88 107 101 106 114 108 110 126
98 101 100 102 99 92 94 94 91 92 94 99 104 104 101 97 93 86 78 67 59 54 51 42 39 41 42 39 44 47 50 53 61 64 77 86 94 98 96 107 115 116 119
78 79 85 91 91 92 93 93 92 94 96 100 101 103 102 96 92 84 74 65 57 49 45 44 39 41 33 38 41 46 53 63 67 68 76 78 76 83 92 98 106 106 122
63 72 80 85 88 84 86 88 88 89 92 99 99 100 98 96 89 80 74 62 51 51 51 42 41 31 36 34 35 43 62 69 70 72 77 84 83 81 74 62 69 85 93
53 61 69 73 77 77 78 78 82 89 94 98 96 97 99 93 81 75 72 58 56 56 49 42 31 29 32 34 32 47 55 57 64 70 74 79 79 76 73 68 63 74 92
51 50 55 60 65 70 73 75 79 85 89 95 95 96 97 90 81 76 69 55 61 51 46 37 27 28 29 29 37 42 45 49 56 64 71 77 80 80 78 73 74 81 86
55 51 46 50 58 60 64 72 77 82 88 94 97 102 100 94 85 80 65 63 65 56 50 35 34 28 21 24 32 39 41 42 50 61 69 76 79 83 86 84 81 89 96
67 59 53 50 53 53 57 65 71 83 92 96 101 106 106 99 89 79 68 60 53 50 44 31 28 21 19 20 28 32 34 40 49 59 70 78 83 85 92 85 91 97 102
74 69 66 70 71 68 64 64 72 82 91 95 103 110 111 103 91 71 65 64 55 45 37 33 26 19 22 25 27 30 35 41 50 58 69 78 83 86 95 86 83 99 100
75 78 75 72 80 78 78 79 84 91 92 95 97 104 103 91 79 71 64 56 48 48 37 30 22 22 24 27 29 30 34 42 49 58 65 75 82 85 94 91 84 95 99
86 78 72 78 86 86 83 83 84 70 83 73 67 94 99 86 68 64 55 45 47 40 31 25 22 22 23 25 28 31 37 40 49 59 65 75 81 89 90 84 96 95 99
82 87 85 77 82 81 84 83 81 85 74 68 57 75 78 66 61 56 57 51 51 40 33 24 23 20 22 25 28 32 37 43 52 61 68 77 84 89 86 91 97 98 100
74 75 78 88 90 81 77 77 74 72 77 84 76 65 71 66 64 57 61 50 45 37 28 23 21 20 24 27 29 32 38 44 53 64 69 79 87 92 84 97 101 100 100
65 71 76 81 79 72 70 68 70 79 82 86 85 90 88 84 79 72 55 52 42 34 24 21 18 21 26 28 31 34 40 47 54 63 72 81 89 89 94 100 103 106 104
70 72 74 71 68 67 66 73 83 89 91 87 94 91 92 91 79 62 59 49 40 31 24 19 18 22 25 26 30 36 41 48 52 62 73 81 89 92 101 102 104 104 103
59 61 59 59 59 59 64 77 90 92 94 100 93 88 83 72 67 59 54 45 35 28 21 17 19 23 26 26 31 37 42 49 53 62 71 82 90 101 101 105 105 104 102
40 44 45 47 47 54 67 79 88 93 97 100 94 87 79 76 64 57 48 39 32 25 19 17 19 23 27 27 30 36 42 48 50 57 71 85 92 99 102 104 105 105 104
26 32 37 43 51 61 70 77 82 93 94 91 92 81 74 71 62 52 43 35 26 20 17 19 22 25 25 26 28 32 35 41 45 53 65 85 90 95 103 105 105 105 106
22 29 36 45 56 63 68 73 78 80 86 85 77 69 70 61 52 44 36 28 22 19 19 20 23 26 28 28 29 32 33 35 38 46 66 80 81 91 100 102 103 106 104
21 28 36 44 53 58 63 70 78 81 80 74 67 64 59 51 43 36 29 24 21 20 21 22 26 28 29 28 29 31 31 34 41 47 66 75 76 88 99 99 101 103 104
Wind_Direction_500mb
237 238 238 235 236 235 236 236 238 239 240 235 231 230 230 231 230 232 237 245 253 260 265 266 267 273 281 289 293 297 297 297 297 300 303 305 307 308 310 309 307 310 311
244 244 244 242 242 240 238 237 237 237 236 235 230 229 230 229 230 233 237 244 251 257 259 261 263 271 280 285 290 293 294 296 297 300 302 304 307 309 310 310 312 313 313
246 247 245 246 246 244 242 241 239 237 234 231 229 229 229 228 229 233 236 242 250 254 255 256 257 264 277 286 291 293 295 295 297 297 300 303 308 312 313 314 314 314 314
251 250 246 247 249 248 245 242 239 238 234 231 230 228 228 228 229 231 234 239 247 251 253 252 256 267 279 289 292 293 293 297 296 296 300 305 311 316 315 314 308 304 301
253 249 247 251 250 249 245 243 240 237 234 231 228 226 227 227 228 229 232 238 243 247 250 250 257 271 281 288 291 289 295 296 302 307 307 308 305 305 302 302 298 302 300
253 252 248 247 247 246 243 240 237 233 231 229 226 226 225 226 226 228 232 236 241 245 248 249 258 270 285 288 284 289 289 295 297 295 292 289 296 299 300 298 296 297 297
257 252 247 247 244 243 241 236 233 231 228 227 225 225 224 225 225 228 233 235 239 244 248 252 262 279 283 281 284 288 291 285 278 286 288 289 296 300 301 298 292 291 288
259 253 248 243 241 240 238 235 230 227 226 225 225 225 223 222 223 227 231 233 236 240 247 257 271 279 277 280 287 293 299 304 304 303 296 296 294 297 296 295 295 292 289
256 253 249 245 241 238 234 232 227 225 223 222 224 225 223 221 222 226 229 230 234 244 253 257 268 268 281 286 289 297 298 300 303 298 293 291 291 293 292 290 286 288 286
263 254 246 243 240 237 233 230 228 225 225 223 222 223 223 221 221 225 228 230 236 242 247 254 260 274 279 284 287 300 294 298 302 301 303 302 302 305 307 294 292 289 285
284 266 256 249 244 241 236 232 229 225 222 223 221 220 219 219 219 223 229 229 237 240 243 246 251 264 276 281 280 278 291 299 299 300 304 306 310 318 320 317 302 289 286
311 293 269 255 245 238 234 232 229 226 224 222 220 217 216 214 214 220 226 230 235 237 240 244 251 259 267 278 285 294 296 299 305 307 310 316 321 321 322 318 307 296 289
302 296 275 262 246 240 236 232 227 225 223 222 219 214 213 212 212 217 217 224 236 233 234 231 236 241 262 281 288 295 301 310 313 316 321 323 323 325 323 323 311 305 300
284 279 281 266 260 253 246 239 236 231 224 220 219 216 211 209 209 211 210 216 218 224 225 224 232 244 259 275 287 294 312 323 324 324 326 327 327 330 329 330 311 311 306
276 265 255 252 256 252 250 251 246 243 237 229 223 218 214 211 210 211 215 218 219 222 217 218 225 245 262 272 288 307 320 327 329 329 329 331 331 334 335 332 309 309 303
285 270 257 251 250 243 239 237 232 234 232 230 229 223 217 220 209 204 209 207 207 219 208 212 220 241 261 284 300 315 328 329 329 330 331 333 332 333 335 328 310 309 304
274 276 267 257 249 243 237 235 233 227 224 211 207 217 215 212 210 211 202 180 193 208 210 215 230 251 274 291 307 323 332 334 331 334 335 335 336 338 330 319 314 312 307
266 266 268 264 257 252 245 238 228 219 201 191 192 200 205 196 187 176 178 186 201 196 206 218 242 263 281 293 308 323 329 333 335 335 335 337 342 338 328 316 317 314 310
272 267 263 259 254 249 242 234 223 203 190 180 170 165 166 178 167 174 204 201 199 194 201 224 248 271 283 294 311 321 329 334 335 336 338 340 345 341 323 320 319 316 312
268 267 264 255 247 238 230 222 201 187 183 174 172 167 163 163 175 189 199 190 193 197 204 227 253 274 283 296 311 318 328 333 335 337 338 343 345 343 327 324 322 318 316
269 259 252 247 239 232 223 206 188 181 178 173 175 178 181 185 188 190 185 187 192 196 209 226 253 270 282 300 312 319 327 331 333 337 340 343 345 336 339 329 322 321 318
259 250 242 235 228 219 206 192 185 181 178 185 185 179 184 187 184 180 182 186 190 201 214 236 259 272 285 303 317 320 323 331 333 337 339 343 345 340 341 332 327 325 323
246 237 226 221 215 205 193 190 184 182 189 191 180 174 181 181 180 181 183 186 194 204 224 247 265 277 286 304 314 315 319 329 330 336 339 343 340 342 343 335 330 329 327
224 214 207 198 191 185 182 181 184 188 190 178 177 177 176 179 180 180 183 190 199 213 237 260 276 284 289 295 303 310 315 324 326 334 340 341 333 344 344 341 339 336 334
194 190 187 183 179 179 180 182 183 182 176 174 174 175 173 174 176 180 186 192 205 225 248 267 281 291 294 297 302 311 316 318 326 340 344 332 334 344 345 344 345 344 343
174 176 177 179 181 183 184 179 172 169 169 169 169 168 170 173 177 182 190 200 217 237 254 271 285 290 291 294 303 311 319 325 334 349 339 333 340 341 346 346 349 350 348
Wind_Speed_850mb
84 91 97 98 99 98 93 89 90 90 88 83 85 84 79 72 65 59 53 49 49 48 47 42 40 36 37 40 46 51 56 60 84 109 98 108 107 108 109 112 114 110 104
80 91 95 103 106 107 104 98 95 94 88 84 87 86 82 76 70 65 59 54 52 49 46 43 39 37 39 42 49 55 59 61 73 102 111 110 109 107 109 112 116 111 105
87 94 97 101 109 113 112 107 102 98 90 89 91 91 88 80 75 69 63 58 55 51 46 43 39 37 40 46 50 57 60 65 69 84 111 109 108 105 110 110 118 119 110
87 93 96 100 104 108 111 111 108 103 94 95 96 93 90 83 79 75 68 61 56 52 47 44 40 37 41 47 55 58 59 63 69 77 94 107 107 107 102 107 111 99 99
89 99 98 94 98 106 107 103 105 103 96 93 94 96 93 91 87 79 72 63 59 54 49 44 42 38 43 50 54 55 57 61 63 74 91 102 107 93 84 102 108 113 110
104 106 104 103 99 105 99 100 100 96 92 91 97 100 99 96 88 81 74 66 60 55 50 47 40 41 42 47 50 46 48 50 61 69 82 88 110 99 96 97 106 108 127
106 109 107 103 105 100 97 96 96 93 91 95 103 104 102 95 88 84 76 66 60 54 51 47 39 40 44 46 43 47 43 43 51 62 79 88 107 101 106 114 108 110 126
98 101 100 102 99 92 94 94 91 92 94 99 104 104 101 97 93 86 78 67 59 54 51 42 39 41 42 39 44 47 50 53 61 64 77 86 94 98 96 107 115 116 119
78 79 85 91 91 92 93 93 92 94 96 100 101 103 102 96 92 84 74 65 57 49 45 44 39 41 33 38 41 46 53 63 67 68 76 78 76 83 92 98 106 106 122
63 72 80 85 88 84 86 88 88 89 92 99 99 100 98 96 89 80 74 62 51 51 51 42 41 31 36 34 35 43 62 69 70 72 77 84 83 81 74 62 69 85 93
53 61 69 73 77 77 78 78 82 89 94 98 96 97 99 93 81 75 72 58 56 56 49 42 31 29 32 34 32 47 55 57 64 70 74 79 79 76 73 68 63 74 92
51 50 55 60 65 70 73 75 79 85 89 95 95 96 97 90 81 76 69 55 61 51 46 37 27 28 29 29 37 42 45 49 56 64 71 77 80 80 78 73 74 81 86
55 51 46 50 58 60 64 72 77 82 88 94 97 102 100 94 85 80 65 63 65 56 50 35 34 28 21 24 32 39 41 42 50 61 69 76 79 83 86 84 81 89 96
67 59 53 50 53 53 57 65 71 83 92 96 101 106 106 99 89 79 68 60 53 50 44 31 28 21 19 20 28 32 34 40 49 59 70 78 83 85 92 85 91 97 102
74 69 66 70 71 68 64 64 72 82 91 95 103 110 111 103 91 71 65 64 55 45 37 33 26 19 22 25 27 30 35 41 50 58 69 78 83 86 95 86 83 99 100
75 78 75 72 80 78 78 79 84 91 92 95 97 104 103 91 79 71 64 56 48 48 37 30 22 22 24 27 29 30 34 42 49 58 65 75 82 85 94 91 84 95 99
86 78 72 78 86 86 83 83 84 70 83 73 67 94 99 86 68 64 55 45 47 40 31 25 22 22 23 25 28 31 37 40 49 59 65 75 81 89 90 84 96 95 99
82 87 85 77 82 81 84 83 81 85 74 68 57 75 78 66 61 56 57 51 51 40 33 24 23 20 22 25 28 32 37 43 52 61 68 77 84 89 86 91 97 98 100
74 75 78 88 90 81 77 77 74 72 77 84 76 65 71 66 64 57 61 50 45 37 28 23 21 20 24 27 29 32 38 44 53 64 69 79 87 92 84 97 101 100 100
65 71 76 81 79 72 70 68 70 79 82 86 85 90 88 84 79 72 55 52 42 34 24 21 18 21 26 28 31 34 40 47 54 63 72 81 89 89 94 100 103 106 104
70 72 74 71 68 67 66 73 83 89 91 87 94 91 92 91 79 62 59 49 40 31 24 19 18 22 25 26 30 36 41 48 52 62 73 81 89 92 101 102 104 104 103
59 61 59 59 59 59 64 77 90 92 94 100 93 88 83 72 67 59 54 45 35 28 21 17 19 23 26 26 31 37 42 49 53 62 71 82 90 101 101 105 105 104 102
40 44 45 47 47 54 67 79 88 93 97 100 94 87 79 76 64 57 48 39 32 25 19 17 19 23 27 27 30 36 42 48 50 57 71 85 92 99 102 104 105 105 104
26 32 37 43 51 61 70 77 82 93 94 91 92 81 74 71 62 52 43 35 26 20 17 19 22 25 25 26 28 32 35 41 45 53 65 85 90 95 103 105 105 105 106
22 29 36 45 56 63 68 73 78 80 86 85 77 69 70 61 52 44 36 28 22 19 19 20 23 26 28 28 29 32 33 35 38 46 66 80 81 91 100 102 103 106 104
21 28 36 44 53 58 63 70 78 81 80 74 67 64 59 51 43 36 29 24 21 20 21 22 26 28 29 28 29 31 31 34 41 47 66 75 76 88 99 99 101 103 104
Wind_Direction_850mb
237 238 238 235 236 235 236 236 238 239 240 235 231 230 230 231 230 232 237 245 253 260 265 266 267 273 281 289 293 297 297 297 297 300 303 305 307 308 310 309 307 310 311
244 244 244 242 242 240 238 237 237 237 236 235 230 229 230 229 230 233 237 244 251 257 259 261 263 271 280 285 290 293 294 296 297 300 302 304 307 309 310 310 312 313 313
246 247 245 246 246 244 242 241 239 237 234 231 229 229 229 228 229 233 236 242 250 254 255 256 257 264 277 286 291 293 295 295 297 297 300 303 308 312 313 314 314 314 314
251 250 246 247 249 248 245 242 239 238 234 231 230 228 228 228 229 231 234 239 247 251 253 252 256 267 279 289 292 293 293 297 296 296 300 305 311 316 315 314 308 304 301
253 249 247 251 250 249 245 243 240 237 234 231 228 226 227 227 228 229 232 238 243 247 250 250 257 271 281 288 291 289 295 296 302 307 307 308 305 305 302 302 298 302 300
253 252 248 247 247 246 243 240 237 233 231 229 226 226 225 226 226 228 232 236 241 245 248 249 258 270 285 288 284 289 289 295 297 295 292 289 296 299 300 298 296 297 297
257 252 247 247 244 243 241 236 233 231 228 227 225 225 224 225 225 228 233 235 239 244 248 252 262 279 283 281 284 288 291 285 278 286 288 289 296 300 301 298 292 291 288
259 253 248 243 241 240 238 235 230 227 226 225 225 225 223 222 223 227 231 233 236 240 247 257 271 279 277 280 287 293 299 304 304 303 296 296 294 297 296 295 295 292 289
256 253 249 245 241 238 234 232 227 225 223 222 224 225 223 221 222 226 229 230 234 244 253 257 268 268 281 286 289 297 298 300 303 298 293 291 291 293 292 290 286 288 286
263 254 246 243 240 237 233 230 228 225 225 223 222 223 223 221 221 225 228 230 236 242 247 254 260 274 279 284 287 300 294 298 302 301 303 302 302 305 307 294 292 289 285
284 266 256 249 244 241 236 232 229 225 222 223 221 220 219 219 219 223 229 229 237 240 243 246 251 264 276 281 280 278 291 299 299 300 304 306 310 318 320 317 302 289 286
311 293 269 255 245 238 234 232 229 226 224 222 220 217 216 214 214 220 226 230 235 237 240 244 251 259 267 278 285 294 296 299 305 307 310 316 321 321 322 318 307 296 289
302 296 275 262 246 240 236 232 227 225 223 222 219 214 213 212 212 217 217 224 236 233 234 231 236 241 262 281 288 295 301 310 313 316 321 323 323 325 323 323 311 305 300
284 279 281 266 260 253 246 239 236 231 224 220 219 216 211 209 209 211 210 216 218 224 225 224 232 244 259 275 287 294 312 323 324 324 326 327 327 330 329 330 311 311 306
276 265 255 252 256 252 250 251 246 243 237 229 223 218 214 211 210 211 215 218 219 222 217 218 225 245 262 272 288 307 320 327 329 329 329 331 331 334 335 332 309 309 303
285 270 257 251 250 243 239 237 232 234 232 230 229 223 217 220 209 204 209 207 207 219 208 212 220 241 261 284 300 315 328 329 329 330 331 333 332 333 335 328 310 309 304
274 276 267 257 249 243 237 235 233 227 224 211 207 217 215 212 210 211 202 180 193 208 210 215 230 251 274 291 307 323 332 334 331 334 335 335 336 338 330 319 314 312 307
266 266 268 264 257 252 245 238 228 219 201 191 192 200 205 196 187 176 178 186 201 196 206 218 242 263 281 293 308 323 329 333 335 335 335 337 342 338 328 316 317 314 310
272 267 263 259 254 249 242 234 223 203 190 180 170 165 166 178 167 174 204 201 199 194 201 224 248 271 283 294 311 321 329 334 335 336 338 340 345 341 323 320 319 316 312
268 267 264 255 247 238 230 222 201 187 183 174 172 167 163 163 175 189 199 190 193 197 204 227 253 274 283 296 311 318 328 333 335 337 338 343 345 343 327 324 322 318 316
269 259 252 247 239 232 223 206 188 181 178 173 175 178 181 185 188 190 185 187 192 196 209 226 253 270 282 300 312 319 327 331 333 337 340 343 345 336 339 329 322 321 318
259 250 242 235 228 219 206 192 185 181 178 185 185 179 184 187 184 180 182 186 190 201 214 236 259 272 285 303 317 320 323 331 333 337 339 343 345 340 341 332 327 325 323
246 237 226 221 215 205 193 190 184 182 189 191 180 174 181 181 180 181 183 186 194 204 224 247 265 277 286 304 314 315 319 329 330 336 339 343 340 342 343 335 330 329 327
224 214 207 198 191 185 182 181 184 188 190 178 177 177 176 179 180 180 183 190 199 213 237 260 276 284 289 295 303 310 315 324 326 334 340 341 333 344 344 341 339 336 334
194 190 187 183 179 179 180 182 183 182 176 174 174 175 173 174 176 180 186 192 205 225 248 267 281 291 294 297 302 311 316 318 326 340 344 332 334 344 345 344 345 344 343
174 176 177 179 181 183 184 179 172 169 169 169 169 168 170 173 177 182 190 200 217 237 254 271 285 290 291 294 303 311 319 325 334 349 339 333 340 341 346 346 349 350 348